Regional Weather Roundup
Issued by NWS

Home | Current Version | Previous Version | Graphics & Text | Print | Product List | Glossary On
Versions: 1 2 3 4 5 6 7 8 9 10 11 12 13 14 15 16 17 18 19 20 21 22 23 24 25 26 27 28 29 30 31 32 33 34 35 36 37 38 39 40 41 42 43 44 45 46 47 48 49 50
668
ASUS43 KMKX 170420
RWRWI

WISCONSIN REGIONAL WEATHER ROUNDUP
NATIONAL WEATHER SERVICE MILWAUKEE/SULLIVAN WI
1000 PM CST SAT DEC 16 2017

NOTE: "FAIR" INDICATES FEW OR NO CLOUDS BELOW 12,000 FEET WITH NO
SIGNIFICANT WEATHER AND/OR OBSTRUCTIONS TO VISIBILITY.

WIZ001-002-006>008-014>016-023>028-170500-
NORTHWEST WISCONSIN

CITY           SKY/WX    TMP DP  RH WIND       PRES   REMARKS
SUPERIOR ARPT  CLOUDY    21  16  80 CALM      30.14R
ASHLAND        CLOUDY    21  14  74 S3        30.14R
HAYWARD        CLOUDY    21  13  71 CALM      30.10R
SIREN          CLOUDY    21  16  79 CALM      30.12R
CUMBERLAND     CLOUDY    19  14  79 SE3       30.10R
RICE LAKE      CLOUDY    21  18  86 CALM      30.13R
CHETEK         CLOUDY    22  19  87 CALM      30.12R
LADYSMITH      CLOUDY    23  19  84 CALM      30.13R
EAU CLAIRE     CLOUDY    24  21  88 SE3       30.11R
MENOMONIE      CLOUDY    21  18  90 CALM      30.12R
NEW RICHMOND   CLOUDY    18  15  86 CALM      30.11R
OSCEOLA        CLOUDY    21  17  83 CALM      30.15R
$$

WIZ003>005-009-010-017-018-170500-
NORTH CENTRAL WISCONSIN

CITY           SKY/WX    TMP DP  RH WIND       PRES   REMARKS
MANITOWISH WTR CLOUDY    18  17  93 SE6       30.10R WCI  10
ARBOR VITAE    CLOUDY    20  18  91 SE7       30.10R WCI  11
WOODRUFF       CLOUDY    20  18  91 SE7       30.10R WCI  11
RHINELANDER    CLOUDY    19  18  95 SE6       30.11R WCI  11
EAGLE RIVER    CLOUDY    18  16  89 SE3       30.09R
LAND O LAKES   CLOUDY    19  17  91 S3        30.12R
PHILLIPS       CLOUDY    19  15  87 SE3       30.09S
TOMAHAWK       CLOUDY    20  18  93 CALM      30.11R
MEDFORD        CLOUDY    21  18  87 SE3       30.10R
MERRILL        CLOUDY    21  19  93 SE5       30.12R WCI  15
$$

WIZ029-030-035-036-043>047-170500-
CENTRAL WISCONSIN

CITY           SKY/WX    TMP DP  RH WIND       PRES   REMARKS
WAUSAU         CLOUDY    21  18  88 E6        30.11R WCI  13
MOSINEE        CLOUDY    21  19  93 E8        30.12R WCI  12
MARSHFIELD     CLOUDY    23  19  85 E6        30.10R WCI  16
STEVENS POINT  CLOUDY    21  19  93 E6        30.13R WCI  14
WAUPACA        CLOUDY    26  21  82 NE5       30.14R WCI  20
WAUTOMA        CLOUDY    25  21  85 NE5       30.13R WCI  19
WISC RAPIDS    CLOUDY    24  18  77 E5        30.14R WCI  18
CAMP DOUGLAS   CLOUDY    26  22  85 SE3       30.12R
$$

WIZ011>013-019>022-031-037>040-048>050-170500-
NORTHEAST WISCONSIN

CITY           SKY/WX    TMP DP  RH WIND       PRES   REMARKS
ANTIGO         CLOUDY    19  18  98 E6        30.11R WCI  11
SHAWANO        CLOUDY    24  20  85 NE6       30.15S WCI  17
OCONTO         CLOUDY    22  19  87 CALM      30.17R
STURGEON BAY   CLOUDY    27  22  81 NE5       30.17R WCI  22
GREEN BAY      CLOUDY    28  22  78 NE7       30.15R WCI  21
MANITOWOC      CLOUDY    29  25  85 NE3         N/A
APPLETON       CLOUDY    25  19  80 NE7       30.11R WCI  17
CLINTONVILLE   CLOUDY    23  18  80 NE5       30.14S WCI  17
OSHKOSH        CLOUDY    27  22  81 NE8       30.12R WCI  19
$$

WIZ032>034-041-042-053>061-170500-
SOUTHWEST WISCONSIN

CITY           SKY/WX    TMP DP  RH WIND       PRES   REMARKS
LA CROSSE      CLOUDY    29  26  89 E6        30.12R WCI  23
SPARTA         CLOUDY    26  25  94 E3        30.12R
VIROQUA        CLOUDY    27  27 100 CALM      30.07R
BOSCOBEL       CLOUDY    32  28  85 NE5       30.11R WCI  27
PRAIRIE DU CHI MOCLDY    30  26  83 NE3       30.08S
PLATTEVILLE    CLEAR     31  31 100 E13       30.06R WCI  21
$$

WIZ056-057-062-063-064-067-068-170500-
SOUTH CENTRAL WISCONSIN

CITY           SKY/WX    TMP DP  RH WIND       PRES   REMARKS
REEDSBURG      CLOUDY    27  24  87 E3        30.11R
BARABOO/DELLS  CLOUDY    28  24  86 CALM      30.11R
LONE ROCK      CLOUDY    32  29  88 NE9       30.11R FOG     WCI  24
MINERAL POINT  CLOUDY    32  32 100 E9        30.06S WCI  24
MADISON        CLOUDY    30  26  85 NE7       30.11R WCI  23
MIDDLETON      CLOUDY    32  28  85 E7        30.10R WCI  26
WATERTOWN      CLOUDY    31  30  97 NE6       30.09R WCI  25
MONROE         CLOUDY    32  32 100 NE9       30.07R WCI  24
JANESVILLE     CLOUDY    34  34 100 NE6       30.08R FOG     WCI  29
$$

WIZ051-052-058>065-066-070>072-170500-
SOUTHEAST WISCONSIN

CITY           SKY/WX    TMP DP  RH WIND       PRES   REMARKS
MILWAUKEE      CLOUDY    36  32  85 E13       30.10R WCI  27
WAUKESHA       CLOUDY    32  30  93 NE9       30.10R WCI  24
MILWAUKEE/TIMM CLOUDY    32  28  86 NE6       30.11R WCI  26
RACINE         CLOUDY    35  33  92 E12       30.10R WCI  27
BURLINGTON     CLOUDY    51  51 100 NE5       30.08R FOG
KENOSHA        MOCLDY    36  32  85 NE10      30.07R FOG     WCI  28
FOND DU LAC    CLOUDY    30  23  75 NE6       30.12R WCI  24
SHEBOYGAN      CLOUDY    31  28  89 E6        30.12R WCI  25
WEST BEND      CLOUDY    30  30 100 NE3       30.10R
JUNEAU         CLOUDY    28  25  86 NE3       30.12R
$$

LSZ147-162-170500-
LAKE SUPERIOR

STATION/POSITION TIME  TEMP    WIND        PRES    WAVE
                       AIR SEA DIR/SP/G            HT/PER
                 (UTC) (F)     (DEG/KT/KT) (MB)    (FT/S)
DEVILS ISLAND    0400   25     190/  8/ 11 1021.4R
SAXON HARBOR     0340   23                 1020.0R
$$

LMZ867-665-643>646-170500-
LAKE MICHIGAN

STATION/POSITION TIME  TEMP    WIND        PRES    WAVE
                       AIR SEA DIR/SP/G            HT/PER
                 (UTC) (F)     (DEG/KT/KT) (MB)    (FT/S)
NORTHPORT PIER   0340   26      60/ 12/ 17 1022.4R
KEWAUNEE LAKESHO 0354   30      80/  6/  9 1020.2R
SHEBOYGAN LAKESH 0400   32      70/  9/ 10 1020.9R
PORT WASHINGTON  0330   35      80/  9/ 11 1020.7R
MILWAUKEE LAKESH 0400   35      70/ 13/ 14   N/A
KENOSHA   LAKESH 0400   37      60/ 16/ 18 1018.6
$$

TC  - TEMPERATURE IN CELSIUS
VSB - VISIBILITY IN STATUTE MILES
WCI - WIND CHILL INDEX
HX  - HEAT INDEX





USA.gov is the U.S. government's official web portal to all federal, state and local government web resources and services.